This demonstration page uses our WeatherBlox Daily Observations layout. Learn more.

Left ArrowRight Arrow

Hourly Observations for March 15, 2020

Temp ( °F °C ) Dew Point ( °F °C ) Humidity (%) Winds ( mph kmh ) Pressure ( in mb ) Visibility ( mi km ) Precip ( " mm )
12:40 am 00:40 Cloudy 28 -2 28 -2 100 100 E 10 17 30.62 1037 8 13 0.00 0.00
12:56 am 00:56 Cloudy 29 -1.7 28 -2.2 96 96 E 9 15 30.57 1035 7 11 0.00 0.00
1:27 am 01:27 Cloudy with Mist and Fog 28 -2 28 -2 100 100 E 10 17 30.61 1037 6 10 0.00 0.00
1:56 am 01:56 Cloudy 29 -1.7 28 -2.2 96 96 E 10 17 30.57 1035 7 11 0.00 0.00
2:23 am 02:23 Cloudy with Light Snow 28 -2 28 -2 100 100 E 10 17 30.61 1037 7 11 0.00 0.00
2:56 am 02:56 Cloudy 29 -1.7 28 -2.2 96 96 E 10 17 30.57 1035 7 11 0.00 0.00
3:56 am 03:56 Cloudy with Light Snow 29 -1.7 28 -2.2 96 96 E 10 17 30.57 1035 5 8 0.00 0.00
4:13 am 04:13 Cloudy with Light Snow 28 -2 28 -2 100 100 E 10 17 30.61 1037 6 10 0.00 0.00
4:30 am 04:30 Cloudy with Light Snow 28 -2 28 -2 100 100 E 10 17 30.61 1037 6 10 0.00 0.00
4:56 am 04:56 Cloudy with Mist and Fog 29 -1.7 28 -2.2 96 96 E 12 19 30.56 1035 6 10 0.00 0.00
5:18 am 05:18 Cloudy with Mist and Fog 28 -2 28 -2 100 100 E 12 19 30.60 1036 6 10 0.00 0.00
5:48 am 05:48 Cloudy with Light Wintry Mix 28 -2 28 -2 100 100 E 13 20 30.60 1036 4 6 0.00 0.00
5:56 am 05:56 Cloudy with Light Snow 29 -1.7 28 -2.2 96 96 E 12 19 30.56 1035 4 6 0.00 0.00
6:03 am 06:03 Cloudy with Light Wintry Mix 28 -2 28 -2 100 100 E 10 17 30.60 1036 4 6 0.00 0.00
6:26 am 06:26 Cloudy with Mist and Fog 28 -2 28 -2 100 100 E 12 19 30.60 1036 5 8 0.00 0.00
6:56 am 06:56 Cloudy with Mist and Fog 29 -1.7 28 -2.2 96 96 E 10 17 30.55 1035 6 10 0.00 0.00
7:56 am 07:56 Cloudy with Mist and Fog 29 -1.7 28 -2.2 96 96 ESE 12 19 30.56 1035 5 8 0.00 0.00
8:56 am 08:56 Cloudy 30 -1.1 29 -1.7 96 96 ESE 12 19 30.57 1035 7 11 0.00 0.00
9:56 am 09:56 Cloudy 30 -1.1 29 -1.7 96 96 ESE 14 22 30.56 1035 9 14 0.00 0.00
10:56 am 10:56 Cloudy 31 -0.6 29 -1.7 92 92 SE 12 19 30.57 1035 10 16 0.00 0.00
11:35 am 11:35 Cloudy 32 0 28 -2 87 87 SE 12 19 30.59 1036 10 16 0.00 0.00
11:56 am 11:56 Cloudy 33 0.6 29 -1.7 85 85 SE 14 22 30.55 1035 10 16 0.00 0.00
12:56 pm 12:56 Cloudy 33 0.6 28 -2.2 82 82 SSE 14 22 30.53 1034 10 16 0.00 0.00
1:56 pm 13:56 Cloudy 32 0 29 -1.7 88 88 SSE 16 26 30.50 1033 10 16 0.00 0.00
2:56 pm 14:56 Cloudy 33 0.6 29 -1.7 85 85 undefined N/A 30.46 1032 10 16 0.00 0.00
3:31 pm 15:31 Cloudy 34 1 28 -2 81 81 SSE 15 24 30.45 1031 10 16 0.00 0.00
3:56 pm 15:56 Cloudy 35 1.7 29 -1.7 78 78 SSE 14 22 30.41 1030 10 16 0.00 0.00
4:56 pm 16:56 Cloudy 33 0.6 29 -1.7 85 85 SSE 13 20 30.40 1029 10 16 0.00 0.00
5:56 pm 17:56 Cloudy 33 0.6 29 -1.7 85 85 SSE 12 19 30.39 1029 10 16 0.00 0.00
6:07 pm 18:07 Cloudy 32 0 28 -2 87 87 SSE 13 20 30.42 1030 10 16 0.00 0.00
6:56 pm 18:56 Cloudy 32 0 30 -1.1 92 92 SSE 13 20 30.37 1029 10 16 0.00 0.00
7:56 pm 19:56 Cloudy 32 0 30 -1.1 92 92 S 12 19 30.36 1028 10 16 0.00 0.00
8:56 pm 20:56 Cloudy 32 0 30 -1.1 92 92 SE 8 13 30.36 1028 10 16 0.00 0.00
9:56 pm 21:56 Cloudy 32 0 31 -0.6 96 96 SSE 9 15 30.35 1028 7 11 0.00 0.00
10:56 pm 22:56 Cloudy with Light Wintry Mix 32 0 31 -0.6 96 96 SE 8 13 30.33 1027 5 8 0.00 0.00
11:14 pm 23:14 Cloudy with Light Wintry Mix 32 0 30 -1 93 93 SE 8 13 30.36 1028 4 6 0.00 0.00
11:56 pm 23:56 Cloudy with Light Wintry Mix 32 0 31 -0.6 96 96 SSE 9 15 30.32 1027 4 6 0.00 0.00

Powered by AerisWeather